N531RC KFRG-KCAE

Flight info

Callsign N531RC
Flight time 1h 54m
Altitude 34000
Route KFRG/ NO350F340 DCT WAVEY DCT EMJAY Q167 ZJAAY Q97 SAWED DCT GUILD Q409 MRPIT DCT KCAE/23
Aircraft P180/L-L/C

Departure

Time 2026-04-25 21:21
Airport Republic Airport (KFRG)

Arrival

Time 2026-04-25 23:15
Airport Columbia Metropolitan Airport (KCAE)
Time Latitude Longitude Altitude Speed Heading
2026-04-25 21:06 40.72866 -73.41634 77 ft 0 kts 225°
2026-04-25 21:09 40.72864 -73.41640 77 ft 1 kts 238°
2026-04-25 21:09 40.72862 -73.41671 77 ft 6 kts 296°
2026-04-25 21:09 40.72894 -73.41720 77 ft 7 kts 317°
2026-04-25 21:10 40.72937 -73.41712 74 ft 7 kts 39°
2026-04-25 21:10 40.72984 -73.41693 77 ft 9 kts 320°
2026-04-25 21:10 40.73027 -73.41756 77 ft 10 kts 312°
2026-04-25 21:10 40.73068 -73.41816 75 ft 11 kts 312°
2026-04-25 21:11 40.73120 -73.41892 72 ft 11 kts 313°
2026-04-25 21:11 40.73169 -73.41962 84 ft 9 kts 312°
2026-04-25 21:11 40.73210 -73.42022 82 ft 9 kts 313°
2026-04-25 21:11 40.73251 -73.42081 82 ft 9 kts 313°
2026-04-25 21:12 40.73294 -73.42142 85 ft 8 kts 312°
2026-04-25 21:12 40.73317 -73.42192 87 ft 5 kts 277°
2026-04-25 21:12 40.73318 -73.42222 86 ft 4 kts 273°
2026-04-25 21:12 40.73327 -73.42247 87 ft 3 kts 324°
2026-04-25 21:13 40.73329 -73.42249 90 ft 0 kts 329°
2026-04-25 21:15 40.73330 -73.42250 90 ft 2 kts 329°
2026-04-25 21:15 40.73377 -73.42256 88 ft 6 kts 11°
2026-04-25 21:16 40.73395 -73.42244 89 ft 0 kts 35°
2026-04-25 21:18 40.73396 -73.42243 89 ft 1 kts 35°
2026-04-25 21:19 40.73405 -73.42235 87 ft 0 kts 36°
2026-04-25 21:19 40.73407 -73.42233 87 ft 2 kts 37°
2026-04-25 21:19 40.73437 -73.42199 86 ft 8 kts 43°
2026-04-25 21:19 40.73449 -73.42151 86 ft 0 kts 122°
2026-04-25 21:20 40.73155 -73.41731 72 ft 90 kts 132°
2026-04-25 21:20 40.72723 -73.41102 68 ft 126 kts 133°
2026-04-25 21:21 40.72300 -73.40531 302 ft 127 kts 137°
2026-04-25 21:21 40.71778 -73.39880 634 ft 130 kts 136°
2026-04-25 21:21 40.71319 -73.39287 855 ft 143 kts 137°
2026-04-25 21:21 40.70775 -73.38615 1377 ft 137 kts 139°
2026-04-25 21:22 40.70232 -73.37969 1870 ft 136 kts 139°
2026-04-25 21:22 40.69715 -73.37351 2267 ft 140 kts 138°
2026-04-25 21:22 40.69072 -73.36544 2514 ft 161 kts 136°
2026-04-25 21:22 40.68857 -73.36266 2577 ft 167 kts 136°
2026-04-25 21:23 40.68284 -73.35516 2480 ft 195 kts 135°
2026-04-25 21:23 40.67760 -73.34822 2613 ft 203 kts 135°
2026-04-25 21:23 40.66975 -73.33797 2529 ft 223 kts 136°
2026-04-25 21:23 40.66264 -73.32856 2924 ft 212 kts 135°
2026-04-25 21:24 40.65616 -73.31977 2999 ft 221 kts 134°
2026-04-25 21:24 40.64560 -73.30562 2995 ft 233 kts 141°
2026-04-25 21:24 40.63104 -73.29793 2987 ft 240 kts 176°
2026-04-25 21:24 40.61524 -73.30234 2990 ft 243 kts 203°
2026-04-25 21:25 40.60552 -73.30817 2993 ft 245 kts 206°
2026-04-25 21:25 40.59186 -73.31704 2995 ft 247 kts 207°
2026-04-25 21:25 40.57693 -73.32687 2998 ft 248 kts 207°
2026-04-25 21:25 40.56368 -73.33560 3000 ft 249 kts 207°
2026-04-25 21:26 40.55268 -73.34287 3002 ft 250 kts 207°
2026-04-25 21:26 40.53788 -73.35264 3004 ft 250 kts 207°
2026-04-25 21:26 40.52232 -73.36291 3005 ft 250 kts 207°
2026-04-25 21:26 40.50672 -73.37322 3006 ft 251 kts 207°
2026-04-25 21:27 40.49405 -73.38159 3007 ft 251 kts 207°
2026-04-25 21:27 40.47837 -73.39162 3006 ft 251 kts 204°
2026-04-25 21:27 40.46618 -73.39713 3005 ft 252 kts 195°
2026-04-25 21:27 40.44851 -73.39998 3001 ft 252 kts 180°
2026-04-25 21:28 40.43020 -73.39857 3001 ft 253 kts 176°
2026-04-25 21:28 40.41150 -73.39710 3001 ft 252 kts 179°
2026-04-25 21:28 40.39325 -73.39699 3002 ft 252 kts 181°
2026-04-25 21:28 40.37582 -73.39707 3002 ft 252 kts 180°
2026-04-25 21:29 40.35989 -73.39678 3002 ft 253 kts 179°
2026-04-25 21:29 40.34232 -73.39634 3002 ft 253 kts 180°
2026-04-25 21:29 40.32476 -73.39599 3078 ft 250 kts 180°
2026-04-25 21:29 40.30821 -73.39573 3685 ft 225 kts 180°
2026-04-25 21:30 40.29347 -73.39546 4502 ft 199 kts 180°
2026-04-25 21:30 40.28052 -73.39522 5398 ft 174 kts 180°
2026-04-25 21:30 40.26856 -73.39501 5982 ft 173 kts 180°
2026-04-25 21:30 40.26052 -73.39487 6294 ft 175 kts 180°
2026-04-25 21:31 40.24417 -73.39458 6959 ft 176 kts 180°
2026-04-25 21:31 40.23214 -73.39164 7425 ft 179 kts 155°
2026-04-25 21:31 40.22181 -73.38249 7881 ft 180 kts 144°
2026-04-25 21:31 40.21163 -73.37281 8335 ft 182 kts 145°
2026-04-25 21:32 40.20132 -73.36318 8765 ft 183 kts 145°
2026-04-25 21:32 40.19092 -73.35344 9199 ft 185 kts 145°
2026-04-25 21:32 40.18065 -73.34374 9688 ft 185 kts 145°
2026-04-25 21:32 40.17014 -73.33387 10151 ft 187 kts 145°
2026-04-25 21:33 40.15954 -73.32395 10605 ft 188 kts 145°
2026-04-25 21:33 40.14887 -73.31396 11047 ft 189 kts 145°
2026-04-25 21:33 40.13813 -73.30391 11478 ft 191 kts 145°
2026-04-25 21:33 40.12731 -73.29378 11901 ft 192 kts 145°
2026-04-25 21:34 40.11642 -73.28359 12300 ft 193 kts 145°
2026-04-25 21:34 40.10527 -73.27371 12691 ft 194 kts 154°
2026-04-25 21:34 40.09214 -73.27064 13073 ft 193 kts 187°
2026-04-25 21:34 40.07972 -73.27668 13446 ft 193 kts 217°
2026-04-25 21:35 40.06998 -73.28745 13787 ft 194 kts 222°
2026-04-25 21:35 40.05977 -73.29906 14145 ft 195 kts 221°
2026-04-25 21:35 40.04944 -73.31062 14489 ft 196 kts 221°
2026-04-25 21:35 40.03901 -73.32229 14827 ft 197 kts 221°
2026-04-25 21:36 40.02869 -73.33386 15161 ft 199 kts 221°
2026-04-25 21:36 40.01804 -73.34580 15540 ft 199 kts 221°
2026-04-25 21:36 40.00762 -73.35746 15898 ft 201 kts 221°
2026-04-25 21:36 39.99699 -73.36935 16242 ft 202 kts 221°
2026-04-25 21:37 39.98628 -73.38133 16584 ft 203 kts 221°
2026-04-25 21:37 39.97903 -73.38943 16807 ft 204 kts 221°
2026-04-25 21:37 39.96459 -73.40557 17237 ft 205 kts 221°
2026-04-25 21:37 39.95370 -73.41774 17549 ft 206 kts 221°
2026-04-25 21:38 39.94276 -73.42995 17853 ft 207 kts 221°
2026-04-25 21:38 39.93177 -73.44222 18150 ft 208 kts 221°
2026-04-25 21:38 39.92072 -73.45454 18439 ft 210 kts 221°
2026-04-25 21:38 39.90961 -73.46692 18725 ft 210 kts 221°
2026-04-25 21:39 39.89846 -73.47935 19016 ft 212 kts 221°
2026-04-25 21:39 39.88725 -73.49183 19350 ft 212 kts 221°
2026-04-25 21:39 39.87597 -73.50439 19665 ft 214 kts 221°
2026-04-25 21:39 39.86445 -73.51721 19981 ft 215 kts 221°
2026-04-25 21:40 39.85306 -73.52988 20286 ft 216 kts 221°
2026-04-25 21:40 39.84158 -73.54265 20593 ft 217 kts 221°
2026-04-25 21:40 39.82995 -73.55562 20902 ft 218 kts 221°
2026-04-25 21:40 39.81838 -73.56852 21207 ft 219 kts 221°
2026-04-25 21:41 39.80677 -73.58145 21511 ft 220 kts 221°
2026-04-25 21:41 39.79509 -73.59444 21814 ft 221 kts 221°
2026-04-25 21:41 39.78334 -73.60752 22114 ft 223 kts 221°
2026-04-25 21:41 39.77156 -73.62062 22421 ft 224 kts 221°
2026-04-25 21:42 39.75964 -73.63387 22724 ft 225 kts 221°
2026-04-25 21:42 39.74773 -73.64710 23025 ft 226 kts 221°
2026-04-25 21:42 39.73559 -73.66059 23331 ft 227 kts 221°
2026-04-25 21:42 39.72354 -73.67396 23632 ft 228 kts 221°
2026-04-25 21:43 39.71142 -73.68741 23931 ft 229 kts 221°
2026-04-25 21:43 39.69907 -73.70110 24244 ft 231 kts 221°
2026-04-25 21:43 39.68634 -73.71521 24555 ft 232 kts 221°
2026-04-25 21:43 39.67411 -73.72876 24855 ft 233 kts 221°
2026-04-25 21:44 39.66176 -73.74244 25154 ft 234 kts 221°
2026-04-25 21:44 39.64927 -73.75625 25452 ft 235 kts 221°
2026-04-25 21:44 39.62847 -73.77927 25944 ft 237 kts 221°
2026-04-25 21:45 39.61585 -73.79322 26242 ft 239 kts 221°
2026-04-25 21:45 39.60745 -73.80249 26438 ft 239 kts 221°
2026-04-25 21:45 39.59042 -73.82130 26861 ft 241 kts 221°
2026-04-25 21:45 39.57763 -73.83540 27176 ft 243 kts 221°
2026-04-25 21:46 39.56473 -73.84965 27514 ft 244 kts 221°
2026-04-25 21:46 39.55178 -73.86393 27846 ft 245 kts 221°
2026-04-25 21:46 39.53914 -73.87786 28168 ft 247 kts 221°
2026-04-25 21:46 39.52602 -73.89231 28493 ft 248 kts 221°
2026-04-25 21:47 39.51281 -73.90685 28818 ft 249 kts 221°
2026-04-25 21:47 39.49971 -73.92127 29138 ft 251 kts 221°
2026-04-25 21:47 39.48633 -73.93598 29458 ft 252 kts 221°
2026-04-25 21:47 39.47293 -73.95070 29774 ft 254 kts 221°
2026-04-25 21:48 39.45944 -73.96552 30081 ft 255 kts 221°
2026-04-25 21:48 39.44587 -73.98039 30368 ft 256 kts 221°
2026-04-25 21:48 39.43225 -73.99536 30666 ft 258 kts 221°
2026-04-25 21:48 39.41852 -74.01040 30956 ft 259 kts 220°
2026-04-25 21:49 39.40472 -74.02552 31241 ft 260 kts 221°
2026-04-25 21:49 39.39086 -74.04073 31524 ft 262 kts 221°
2026-04-25 21:49 39.37698 -74.05591 31826 ft 261 kts 220°
2026-04-25 21:49 39.36310 -74.07107 32129 ft 261 kts 221°
2026-04-25 21:50 39.34940 -74.08605 32433 ft 261 kts 221°
2026-04-25 21:50 39.33555 -74.10117 32733 ft 260 kts 220°
2026-04-25 21:50 39.32170 -74.11629 33028 ft 260 kts 220°
2026-04-25 21:50 39.31360 -74.12512 33196 ft 260 kts 220°
2026-04-25 21:51 39.29636 -74.14394 33564 ft 260 kts 221°
2026-04-25 21:51 39.28247 -74.15909 33865 ft 259 kts 220°
2026-04-25 21:51 39.27052 -74.17206 33952 ft 266 kts 220°
2026-04-25 21:51 39.25610 -74.18772 33995 ft 276 kts 220°
2026-04-25 21:52 39.24098 -74.20418 34010 ft 286 kts 220°
2026-04-25 21:52 39.22562 -74.22092 34010 ft 297 kts 220°
2026-04-25 21:52 39.21115 -74.23667 34011 ft 306 kts 220°
2026-04-25 21:53 39.17745 -74.27322 34012 ft 325 kts 220°
2026-04-25 21:53 39.14511 -74.30829 34009 ft 340 kts 220°
2026-04-25 21:54 39.10750 -74.34905 34011 ft 356 kts 220°
2026-04-25 21:54 39.06754 -74.39219 34009 ft 369 kts 220°
2026-04-25 21:55 39.03319 -74.42932 34007 ft 378 kts 220°
2026-04-25 21:55 38.99058 -74.47524 34008 ft 386 kts 220°
2026-04-25 21:56 38.94734 -74.52179 34009 ft 392 kts 220°
2026-04-25 21:56 38.90716 -74.56824 34010 ft 395 kts 223°
2026-04-25 21:57 38.86642 -74.61603 34009 ft 397 kts 223°
2026-04-25 21:57 38.82548 -74.66385 34010 ft 398 kts 223°
2026-04-25 21:58 38.78447 -74.71180 34008 ft 400 kts 223°
2026-04-25 21:58 38.74295 -74.75937 34007 ft 401 kts 220°
2026-04-25 21:59 38.69956 -74.80439 34008 ft 402 kts 219°
2026-04-25 21:59 38.65623 -74.84973 34009 ft 403 kts 219°
2026-04-25 22:00 38.59095 -74.91749 34008 ft 403 kts 219°
2026-04-25 22:00 38.54741 -74.96276 34009 ft 403 kts 219°
2026-04-25 22:01 38.50467 -75.00897 34007 ft 403 kts 221°
2026-04-25 22:01 38.46962 -75.04815 34007 ft 402 kts 220°
2026-04-25 22:02 38.41726 -75.09813 34006 ft 403 kts 217°
2026-04-25 22:02 38.37245 -75.14101 34006 ft 403 kts 217°
2026-04-25 22:03 38.32772 -75.18331 34007 ft 403 kts 217°
2026-04-25 22:03 38.28279 -75.22596 34007 ft 403 kts 217°
2026-04-25 22:04 38.24055 -75.26589 34007 ft 403 kts 217°
2026-04-25 22:04 38.19556 -75.30842 34008 ft 403 kts 217°
2026-04-25 22:05 38.15058 -75.35083 34008 ft 403 kts 217°
2026-04-25 22:05 38.10531 -75.39347 34008 ft 403 kts 217°
2026-04-25 22:06 38.06025 -75.43583 34008 ft 402 kts 217°
2026-04-25 22:06 38.01432 -75.47643 34008 ft 402 kts 215°
2026-04-25 22:07 37.97592 -75.50994 34008 ft 402 kts 215°
2026-04-25 22:07 37.92251 -75.55648 34008 ft 402 kts 215°
2026-04-25 22:08 37.87637 -75.59660 34008 ft 402 kts 215°
2026-04-25 22:08 37.82969 -75.63592 34007 ft 402 kts 211°
2026-04-25 22:09 37.78151 -75.67195 34009 ft 402 kts 211°
2026-04-25 22:09 37.73367 -75.70813 34009 ft 401 kts 211°
2026-04-25 22:10 37.69330 -75.73838 34008 ft 401 kts 211°
2026-04-25 22:10 37.64403 -75.77539 34007 ft 402 kts 211°
2026-04-25 22:11 37.59528 -75.81191 34008 ft 401 kts 211°
2026-04-25 22:11 37.54691 -75.84816 34007 ft 402 kts 212°
2026-04-25 22:12 37.50194 -75.89504 34000 ft 402 kts 223°
2026-04-25 22:12 37.46690 -75.93584 34002 ft 402 kts 223°
2026-04-25 22:13 37.42404 -75.98562 34004 ft 402 kts 223°
2026-04-25 22:13 37.38405 -76.03215 34004 ft 402 kts 223°
2026-04-25 22:14 37.34290 -76.07982 34005 ft 402 kts 223°
2026-04-25 22:14 37.30174 -76.12752 34006 ft 402 kts 223°
2026-04-25 22:15 37.26019 -76.17554 34006 ft 402 kts 223°
2026-04-25 22:16 37.19694 -76.24854 34006 ft 402 kts 223°
2026-04-25 22:16 37.15656 -76.29505 34008 ft 402 kts 223°
2026-04-25 22:17 37.11553 -76.34224 34007 ft 401 kts 223°
2026-04-25 22:17 37.07430 -76.38958 34006 ft 402 kts 223°
2026-04-25 22:18 37.03305 -76.43687 34006 ft 402 kts 223°
2026-04-25 22:18 36.99180 -76.48408 34007 ft 402 kts 223°
2026-04-25 22:19 36.95068 -76.53108 34007 ft 402 kts 223°
2026-04-25 22:19 36.90935 -76.57824 34007 ft 402 kts 223°
2026-04-25 22:20 36.86803 -76.62532 34007 ft 402 kts 223°
2026-04-25 22:20 36.82663 -76.67242 34008 ft 402 kts 223°
2026-04-25 22:21 36.78526 -76.71943 34008 ft 402 kts 223°
2026-04-25 22:21 36.74382 -76.76642 34008 ft 402 kts 223°
2026-04-25 22:22 36.70235 -76.81338 34009 ft 402 kts 223°
2026-04-25 22:22 36.66148 -76.85960 34010 ft 401 kts 223°
2026-04-25 22:23 36.62016 -76.90625 34007 ft 401 kts 223°
2026-04-25 22:23 36.57906 -76.95259 34006 ft 401 kts 222°
2026-04-25 22:24 36.53807 -76.99873 34006 ft 402 kts 222°
2026-04-25 22:24 36.49632 -77.04565 34006 ft 402 kts 222°
2026-04-25 22:25 36.45480 -77.09224 34007 ft 402 kts 222°
2026-04-25 22:25 36.41321 -77.13886 34007 ft 402 kts 222°
2026-04-25 22:26 36.37164 -77.18536 34007 ft 402 kts 222°
2026-04-25 22:26 36.32979 -77.23212 34008 ft 402 kts 222°
2026-04-25 22:27 36.28687 -77.27632 34008 ft 401 kts 218°
2026-04-25 22:27 36.24311 -77.31883 34007 ft 401 kts 219°
2026-04-25 22:28 36.19866 -77.36220 34006 ft 401 kts 218°
2026-04-25 22:28 36.15420 -77.40533 34006 ft 401 kts 218°
2026-04-25 22:29 36.11027 -77.44801 34007 ft 402 kts 218°
2026-04-25 22:29 36.06628 -77.49060 34007 ft 402 kts 218°
2026-04-25 22:30 36.00048 -77.55426 34008 ft 402 kts 218°
2026-04-25 22:30 35.96376 -77.58970 34008 ft 402 kts 218°
2026-04-25 22:31 35.91223 -77.63938 34008 ft 402 kts 218°
2026-04-25 22:31 35.86810 -77.68186 34008 ft 402 kts 218°
2026-04-25 22:32 35.82416 -77.72410 34008 ft 402 kts 218°
2026-04-25 22:32 35.78003 -77.76645 34009 ft 402 kts 218°
2026-04-25 22:33 35.73577 -77.80888 34009 ft 402 kts 218°
2026-04-25 22:33 35.69153 -77.85121 34009 ft 402 kts 218°
2026-04-25 22:34 35.65481 -77.88631 34009 ft 402 kts 218°
2026-04-25 22:34 35.61052 -77.92859 34009 ft 402 kts 218°
2026-04-25 22:35 35.56630 -77.97072 34010 ft 402 kts 218°
2026-04-25 22:35 35.52173 -78.01315 34010 ft 402 kts 218°
2026-04-25 22:36 35.47752 -78.05517 34009 ft 402 kts 218°
2026-04-25 22:36 35.43352 -78.09692 34010 ft 402 kts 218°
2026-04-25 22:37 35.38895 -78.13916 34008 ft 402 kts 218°
2026-04-25 22:37 35.34464 -78.18110 34008 ft 402 kts 218°
2026-04-25 22:38 35.30031 -78.22298 34009 ft 402 kts 218°
2026-04-25 22:38 35.25562 -78.26516 34009 ft 402 kts 218°
2026-04-25 22:39 35.21138 -78.30685 34010 ft 402 kts 218°
2026-04-25 22:39 35.16762 -78.34804 34008 ft 401 kts 218°
2026-04-25 22:40 35.12161 -78.39128 34008 ft 400 kts 218°
2026-04-25 22:40 35.07950 -78.43079 33862 ft 401 kts 218°
2026-04-25 22:41 35.05714 -78.45173 33351 ft 401 kts 218°
2026-04-25 22:41 35.03434 -78.47310 32803 ft 400 kts 218°
2026-04-25 22:41 35.01954 -78.48697 32446 ft 399 kts 218°
2026-04-25 22:41 34.99695 -78.50813 31901 ft 399 kts 218°
2026-04-25 22:42 34.97517 -78.52848 31376 ft 400 kts 218°
2026-04-25 22:42 34.95241 -78.54974 30828 ft 398 kts 218°
2026-04-25 22:42 34.92932 -78.57127 30272 ft 394 kts 218°
2026-04-25 22:42 34.90720 -78.59188 29746 ft 391 kts 218°
2026-04-25 22:43 34.88497 -78.61262 29198 ft 386 kts 218°
2026-04-25 22:43 34.86245 -78.63361 28660 ft 383 kts 218°
2026-04-25 22:43 34.84209 -78.65259 28169 ft 379 kts 218°
2026-04-25 22:43 34.82190 -78.67141 27683 ft 377 kts 218°
2026-04-25 22:44 34.80138 -78.69047 27189 ft 375 kts 218°
2026-04-25 22:44 34.78068 -78.70969 26688 ft 370 kts 218°
2026-04-25 22:44 34.76069 -78.72825 26211 ft 367 kts 218°
2026-04-25 22:44 34.74110 -78.74645 25739 ft 366 kts 218°
2026-04-25 22:45 34.72130 -78.76480 25263 ft 363 kts 218°
2026-04-25 22:45 34.70100 -78.78358 24775 ft 360 kts 218°
2026-04-25 22:45 34.68124 -78.80188 24300 ft 357 kts 218°
2026-04-25 22:45 34.66228 -78.81945 23844 ft 355 kts 218°
2026-04-25 22:46 34.64228 -78.83798 23363 ft 352 kts 218°
2026-04-25 22:46 34.62306 -78.85577 22900 ft 350 kts 218°
2026-04-25 22:46 34.60375 -78.87364 22436 ft 348 kts 218°
2026-04-25 22:46 34.58976 -78.88655 22100 ft 347 kts 218°
2026-04-25 22:47 34.57188 -78.90303 21670 ft 343 kts 218°
2026-04-25 22:47 34.55247 -78.92093 21204 ft 341 kts 218°
2026-04-25 22:47 34.53539 -78.93671 20793 ft 339 kts 218°
2026-04-25 22:47 34.51651 -78.95411 20340 ft 335 kts 218°
2026-04-25 22:48 34.49817 -78.97097 20037 ft 328 kts 218°
2026-04-25 22:48 34.48009 -78.98760 20003 ft 317 kts 218°
2026-04-25 22:48 34.46208 -79.00416 20001 ft 312 kts 218°
2026-04-25 22:48 34.44505 -79.01999 19995 ft 309 kts 220°
2026-04-25 22:49 34.43193 -79.04007 19989 ft 308 kts 244°
2026-04-25 22:49 34.42439 -79.06465 19993 ft 308 kts 252°
2026-04-25 22:49 34.41786 -79.08902 19994 ft 307 kts 252°
2026-04-25 22:49 34.41253 -79.10859 19996 ft 308 kts 251°
2026-04-25 22:50 34.40573 -79.13246 19997 ft 310 kts 251°
2026-04-25 22:50 34.39869 -79.15695 19999 ft 311 kts 251°
2026-04-25 22:50 34.39161 -79.18199 20001 ft 311 kts 251°
2026-04-25 22:50 34.38461 -79.20688 20002 ft 312 kts 251°
2026-04-25 22:51 34.37758 -79.23176 20002 ft 313 kts 251°
2026-04-25 22:51 34.37050 -79.25663 20004 ft 313 kts 251°
2026-04-25 22:51 34.36472 -79.27699 20004 ft 313 kts 251°
2026-04-25 22:51 34.35762 -79.30198 20002 ft 313 kts 251°
2026-04-25 22:52 34.35054 -79.32693 19958 ft 315 kts 251°
2026-04-25 22:52 34.34332 -79.35230 19747 ft 321 kts 251°
2026-04-25 22:52 34.33597 -79.37812 19482 ft 328 kts 251°
2026-04-25 22:52 34.33102 -79.39549 19293 ft 331 kts 251°
2026-04-25 22:53 34.32094 -79.43082 18902 ft 337 kts 251°
2026-04-25 22:53 34.31325 -79.45773 18601 ft 340 kts 251°
2026-04-25 22:53 34.30558 -79.48454 18301 ft 332 kts 251°
2026-04-25 22:53 34.29798 -79.51085 18006 ft 320 kts 251°
2026-04-25 22:54 34.29081 -79.53583 17729 ft 310 kts 251°
2026-04-25 22:54 34.28385 -79.56021 17454 ft 303 kts 251°
2026-04-25 22:54 34.27698 -79.58431 17186 ft 303 kts 251°
2026-04-25 22:54 34.27016 -79.60811 16921 ft 302 kts 251°
2026-04-25 22:55 34.26321 -79.63223 16653 ft 301 kts 251°
2026-04-25 22:55 34.25633 -79.65612 16376 ft 300 kts 251°
2026-04-25 22:55 34.24944 -79.68006 15991 ft 303 kts 251°
2026-04-25 22:55 34.24249 -79.70423 15592 ft 305 kts 251°
2026-04-25 22:56 34.23549 -79.72847 15192 ft 306 kts 251°
2026-04-25 22:56 34.22845 -79.75285 14796 ft 307 kts 251°
2026-04-25 22:56 34.22142 -79.77723 14397 ft 307 kts 251°
2026-04-25 22:56 34.21440 -79.80154 14000 ft 307 kts 251°
2026-04-25 22:57 34.20734 -79.82586 13601 ft 306 kts 251°
2026-04-25 22:57 34.20031 -79.85018 13202 ft 306 kts 251°
2026-04-25 22:57 34.19332 -79.87437 12802 ft 305 kts 251°
2026-04-25 22:57 34.18632 -79.89846 12402 ft 304 kts 251°
2026-04-25 22:58 34.17934 -79.92244 12002 ft 301 kts 251°
2026-04-25 22:58 34.17244 -79.94610 11602 ft 298 kts 251°
2026-04-25 22:58 34.16560 -79.96966 11203 ft 296 kts 251°
2026-04-25 22:58 34.15888 -79.99279 11041 ft 287 kts 251°
2026-04-25 22:59 34.15242 -80.01496 11125 ft 272 kts 251°
2026-04-25 22:59 34.14627 -80.03606 11180 ft 263 kts 251°
2026-04-25 22:59 34.14024 -80.05671 11008 ft 264 kts 251°
2026-04-25 22:59 34.13400 -80.07809 10626 ft 272 kts 251°
2026-04-25 23:00 34.12758 -80.09972 10255 ft 277 kts 250°
2026-04-25 23:00 34.12079 -80.12163 9873 ft 279 kts 249°
2026-04-25 23:00 34.11390 -80.14364 9511 ft 281 kts 249°
2026-04-25 23:00 34.10699 -80.16571 9139 ft 281 kts 249°
2026-04-25 23:01 34.10004 -80.18780 8766 ft 282 kts 249°
2026-04-25 23:01 34.09311 -80.20992 8391 ft 281 kts 249°
2026-04-25 23:01 34.08614 -80.23194 8017 ft 281 kts 249°
2026-04-25 23:01 34.07915 -80.25388 7645 ft 280 kts 249°
2026-04-25 23:02 34.07225 -80.27580 7265 ft 279 kts 249°
2026-04-25 23:02 34.06542 -80.29766 6893 ft 278 kts 250°
2026-04-25 23:02 34.05864 -80.31944 6517 ft 277 kts 250°
2026-04-25 23:02 34.05189 -80.34116 6142 ft 276 kts 250°
2026-04-25 23:03 34.04516 -80.36281 5766 ft 275 kts 250°
2026-04-25 23:03 34.03847 -80.38436 5391 ft 274 kts 250°
2026-04-25 23:03 34.03181 -80.40578 5016 ft 272 kts 249°
2026-04-25 23:03 34.02508 -80.42708 4636 ft 271 kts 249°
2026-04-25 23:04 34.01839 -80.44834 4262 ft 270 kts 249°
2026-04-25 23:04 34.01498 -80.45925 4072 ft 270 kts 250°
2026-04-25 23:04 34.00661 -80.48594 3598 ft 268 kts 249°
2026-04-25 23:04 34.00027 -80.50607 3265 ft 267 kts 249°
2026-04-25 23:05 33.99391 -80.52617 3161 ft 257 kts 249°
2026-04-25 23:05 33.98778 -80.54547 3133 ft 249 kts 249°
2026-04-25 23:05 33.98162 -80.56490 3129 ft 242 kts 249°
2026-04-25 23:05 33.97565 -80.58394 3125 ft 238 kts 250°
2026-04-25 23:06 33.96985 -80.60254 3122 ft 235 kts 250°
2026-04-25 23:06 33.96430 -80.62039 3118 ft 225 kts 250°
2026-04-25 23:06 33.95904 -80.63743 3119 ft 218 kts 250°
2026-04-25 23:06 33.95381 -80.65436 3120 ft 214 kts 250°
2026-04-25 23:07 33.94866 -80.67103 3118 ft 210 kts 250°
2026-04-25 23:07 33.94354 -80.68742 3120 ft 208 kts 249°
2026-04-25 23:07 33.93840 -80.70372 3122 ft 207 kts 249°
2026-04-25 23:07 33.93330 -80.71996 3118 ft 207 kts 250°
2026-04-25 23:08 33.92827 -80.73632 3121 ft 210 kts 250°
2026-04-25 23:08 33.92410 -80.74992 3122 ft 212 kts 250°
2026-04-25 23:08 33.91893 -80.76686 3125 ft 214 kts 250°
2026-04-25 23:08 33.91363 -80.78417 3125 ft 215 kts 250°
2026-04-25 23:09 33.90845 -80.80112 3127 ft 215 kts 250°
2026-04-25 23:09 33.90489 -80.81279 3128 ft 216 kts 250°
2026-04-25 23:09 33.90018 -80.82823 3128 ft 216 kts 250°
2026-04-25 23:09 33.89482 -80.84575 3129 ft 216 kts 250°
2026-04-25 23:10 33.88967 -80.86287 3128 ft 215 kts 253°
2026-04-25 23:10 33.88874 -80.88154 3121 ft 216 kts 277°
2026-04-25 23:10 33.89206 -80.89942 3121 ft 216 kts 285°
2026-04-25 23:10 33.89561 -80.91550 3122 ft 215 kts 284°
2026-04-25 23:11 33.89942 -80.93289 3117 ft 210 kts 284°
2026-04-25 23:11 33.90311 -80.94982 2896 ft 208 kts 284°
2026-04-25 23:11 33.90672 -80.96651 2626 ft 204 kts 284°
2026-04-25 23:11 33.91026 -80.98282 2358 ft 199 kts 285°
2026-04-25 23:12 33.91368 -80.99832 2105 ft 177 kts 284°
2026-04-25 23:12 33.91653 -81.01154 1879 ft 152 kts 284°
2026-04-25 23:12 33.91909 -81.02316 1687 ft 138 kts 284°
2026-04-25 23:12 33.92159 -81.03459 1500 ft 133 kts 285°
2026-04-25 23:13 33.92391 -81.04508 1330 ft 132 kts 284°
2026-04-25 23:13 33.92615 -81.05551 1161 ft 129 kts 284°
2026-04-25 23:13 33.92781 -81.06294 1039 ft 126 kts 284°
2026-04-25 23:13 33.92940 -81.07049 918 ft 123 kts 284°
2026-04-25 23:14 33.93142 -81.07978 764 ft 122 kts 284°
2026-04-25 23:14 33.93354 -81.08943 609 ft 122 kts 284°
2026-04-25 23:14 33.93551 -81.09833 462 ft 118 kts 285°
2026-04-25 23:14 33.93743 -81.10703 316 ft 111 kts 284°
2026-04-25 23:15 33.93922 -81.11534 226 ft 98 kts 285°
2026-04-25 23:15 33.94052 -81.12115 218 ft 73 kts 285°
2026-04-25 23:15 33.94126 -81.12378 221 ft 17 kts 315°
2026-04-25 23:15 33.94218 -81.12481 223 ft 14 kts 316°
2026-04-25 23:16 33.94234 -81.12502 223 ft 1 kts 311°
2026-04-25 23:16 33.94237 -81.12505 223 ft 0 kts 318°
2026-04-25 23:16 33.94249 -81.12511 223 ft 8 kts 348°
2026-04-25 23:16 33.94288 -81.12439 223 ft 14 kts 73°
2026-04-25 23:17 33.94299 -81.12330 222 ft 11 kts 102°
2026-04-25 23:17 33.94276 -81.12221 222 ft 15 kts 104°
2026-04-25 23:17 33.94262 -81.12158 221 ft 11 kts 102°
2026-04-25 23:17 33.94314 -81.12104 221 ft 8 kts 21°
2026-04-25 23:18 33.94327 -81.12067 221 ft 4 kts 98°
2026-04-25 23:18 33.94325 -81.12021 220 ft 11 kts 70°
2026-04-25 23:18 33.94348 -81.11992 220 ft 6 kts 32°
2026-04-25 23:18 33.94364 -81.11959 220 ft 6 kts 133°
2026-04-25 23:19 33.94354 -81.11956 220 ft 0 kts 177°